Colby, KS

3:34 AM CST on February 23, 2017 (GMT -0600)
Shaltz

Weather History for KCBK - January, 2014

Change the Weather History Date:

Wednesday, January 1, 2014

  Actual Average (KGLD) Record (KGLD)
Temperature  
Mean Temperature 25 °F -  
Max Temperature 35 °F 37 °F 70 °F (1997)
Min Temperature 15 °F 14 °F -15 °F (1928)
Degree Days  
Heating Degree Days 40    
Moisture  
Dew Point 21 °F    
Average Humidity 88    
Maximum Humidity 100    
Minimum Humidity 60    
Precipitation  
Precipitation 0.00 in - - ()
Sea Level Pressure  
Sea Level Pressure 30.12 in    
Wind  
Wind Speed 9 mph (North)    
Max Wind Speed 21 mph    
Max Gust Speed 25 mph    
Visibility 9 miles    
Events Snow    
Averages and records for this station are not official NWS values.
T = Trace of Precipitation, MM = Missing Value Source: NWS Daily Summary

Daily Weather History Graph

Daily Weather History Graph

Search for Another Location

Airport or City:

Trip Planner

Search our weather history database for the weather conditions in past years. The results will help you decide how hot, cold, wet, or windy it might be!

Date:

Astronomy

Jan. 01, 2014 Rise Set
Actual Time 8:04 AM CST 5:31 PM CST
Civil Twilight 7:34 AM CST 6:01 PM CST
Nautical Twilight 7:00 AM CST 6:35 PM CST
Astronomical Twilight 6:28 AM CST 7:07 PM CST
Moon 7:56 AM CST (1/1) 6:18 PM CST (1/1)
Length of Visible Light 10h 27m
Length of Day
9h 27m
New Moon, 0% of the Moon is Illuminated
Jan 1
New Moon
Jan 7
First Quarter
Jan 15
Full
Jan 23
Last Quarter
Jan 30
New

Hourly Weather History & Observations

Time (CST) Temp. Windchill Dew Point Humidity Pressure Visibility Wind Dir Wind Speed Gust Speed Precip Events Conditions
12:15 AM 33.8 °F 28.6 °F 23.0 °F 65% 29.93 in 10.0 mi West 5.8 mph - N/A   Clear
12:35 AM 33.8 °F 30.8 °F 23.0 °F 65% 29.93 in 10.0 mi West 3.5 mph - N/A   Clear
12:55 AM 35.6 °F 32.8 °F 23.0 °F 60% 29.92 in 10.0 mi West 3.5 mph - N/A   Clear
1:15 AM 30.2 °F 25.4 °F 21.2 °F 69% 29.92 in 10.0 mi NE 4.6 mph - N/A   Clear
1:35 AM 28.4 °F 22.2 °F 21.2 °F 74% 29.92 in 10.0 mi NE 5.8 mph - N/A   Clear
1:55 AM 28.4 °F 21.2 °F 21.2 °F 74% 29.91 in 10.0 mi NE 6.9 mph - N/A   Scattered Clouds
2:15 AM 26.6 °F 22.6 °F 21.2 °F 80% 29.90 in 10.0 mi East 3.5 mph - N/A   Scattered Clouds
2:35 AM 24.8 °F 15.3 °F 21.2 °F 86% 29.91 in 10.0 mi NNE 9.2 mph - N/A   Clear
2:55 AM 23.0 °F 13.1 °F 19.4 °F 86% 29.92 in 10.0 mi NNE 9.2 mph - N/A   Clear
3:15 AM 23.0 °F 13.1 °F 21.2 °F 93% 29.91 in 10.0 mi NNE 9.2 mph - N/A   Scattered Clouds
3:35 AM 24.8 °F 16.9 °F 21.2 °F 86% 29.91 in 10.0 mi NNE 6.9 mph - N/A   Overcast
3:55 AM 26.6 °F 21.2 °F 21.2 °F 80% 29.91 in 10.0 mi NE 4.6 mph - N/A   Overcast
4:15 AM 26.6 °F 19.1 °F 23.0 °F 86% 29.91 in 10.0 mi NE 6.9 mph - N/A   Overcast
4:35 AM 26.6 °F 15.7 °F 23.0 °F 86% 29.93 in 10.0 mi North 12.7 mph - N/A   Overcast
4:55 AM 26.6 °F 16.2 °F 23.0 °F 86% 29.93 in 10.0 mi North 11.5 mph 23.0 mph N/A   Overcast
5:15 AM 26.6 °F 15.7 °F 23.0 °F 86% 29.95 in 10.0 mi North 12.7 mph - N/A   Overcast
5:35 AM 26.6 °F 16.8 °F 23.0 °F 86% 29.95 in 10.0 mi NNE 10.4 mph - N/A   Overcast
5:55 AM 26.6 °F 16.8 °F 23.0 °F 86% 29.94 in 10.0 mi NNE 10.4 mph - N/A   Overcast
6:15 AM 26.6 °F 16.8 °F 23.0 °F 86% 29.94 in 10.0 mi NNE 10.4 mph - N/A   Overcast
6:35 AM 26.6 °F 17.5 °F 21.2 °F 80% 29.94 in 10.0 mi NNE 9.2 mph - N/A   Overcast
6:55 AM 26.6 °F 17.5 °F 21.2 °F 80% 29.93 in 10.0 mi NE 9.2 mph - N/A   Overcast
7:15 AM 26.6 °F 18.2 °F 21.2 °F 80% 29.95 in 10.0 mi NNE 8.1 mph - N/A   Overcast
7:35 AM 26.6 °F 16.8 °F 21.2 °F 80% 29.95 in 10.0 mi NNE 10.4 mph - N/A   Overcast
7:55 AM 24.8 °F 15.3 °F 21.2 °F 86% 29.97 in 10.0 mi NE 9.2 mph - N/A   Overcast
8:15 AM 24.8 °F 15.3 °F 21.2 °F 86% 29.98 in 10.0 mi NNE 9.2 mph - N/A   Overcast
8:35 AM 24.8 °F 12.9 °F 21.2 °F 86% 30.00 in 10.0 mi North 13.8 mph - N/A   Overcast
8:55 AM 24.8 °F 11.9 °F 21.2 °F 86% 30.03 in 10.0 mi North 16.1 mph - N/A   Overcast
9:15 AM 23.0 °F 9.6 °F 21.2 °F 93% 30.06 in 7.0 mi North 16.1 mph 21.9 mph N/A   Overcast
9:35 AM 23.0 °F 8.7 °F 19.4 °F 86% 30.06 in 10.0 mi NNE 18.4 mph - N/A   Overcast
9:55 AM 21.2 °F 7.8 °F 19.4 °F 93% 30.07 in 10.0 mi NNE 15.0 mph - N/A   Overcast
10:15 AM 21.2 °F 6.8 °F 19.4 °F 93% 30.09 in 10.0 mi NNE 17.3 mph 24.2 mph N/A   Overcast
10:35 AM 21.2 °F 7.3 °F 19.4 °F 93% 30.11 in 5.0 mi North 16.1 mph 19.6 mph N/A Snow Light Snow
10:55 AM 21.2 °F 7.3 °F 19.4 °F 93% 30.12 in 5.0 mi North 16.1 mph 20.7 mph N/A Snow Light Snow
11:15 AM 21.2 °F 6.8 °F 19.4 °F 93% 30.14 in 3.0 mi North 17.3 mph - N/A Snow Light Snow
11:35 AM 21.2 °F 8.3 °F 19.4 °F 93% 30.14 in 2.5 mi North 13.8 mph - N/A Snow Light Snow
11:55 AM 23.0 °F 11.1 °F 21.2 °F 93% 30.15 in 2.0 mi North 12.7 mph 19.6 mph N/A Snow Light Snow
12:15 PM 23.0 °F 8.0 °F 21.2 °F 93% 30.14 in 2.0 mi North 20.7 mph 24.2 mph N/A Snow Light Snow
12:35 PM 23.0 °F 8.7 °F 21.2 °F 93% 30.15 in 4.0 mi North 18.4 mph 24.2 mph N/A Snow Light Snow
12:55 PM 24.8 °F 11.5 °F 23.0 °F 93% 30.15 in 2.5 mi North 17.3 mph - N/A Snow Light Snow
1:15 PM 24.8 °F 11.5 °F 23.0 °F 93% 30.15 in 5.0 mi North 17.3 mph 20.7 mph N/A Snow Light Snow
1:35 PM 24.8 °F 11.1 °F 21.2 °F 86% 30.15 in 10.0 mi North 18.4 mph 25.3 mph N/A   Overcast
1:55 PM 24.8 °F 11.1 °F 21.2 °F 86% 30.16 in 10.0 mi North 18.4 mph 25.3 mph N/A   Overcast
2:15 PM 24.8 °F 10.7 °F 21.2 °F 86% 30.15 in 10.0 mi North 19.6 mph - N/A   Overcast
2:35 PM 24.8 °F 11.5 °F 21.2 °F 86% 30.17 in 10.0 mi North 17.3 mph - N/A   Overcast
2:55 PM 24.8 °F 11.1 °F 21.2 °F 86% 30.18 in 10.0 mi North 18.4 mph 23.0 mph N/A   Overcast
3:15 PM 24.8 °F 11.9 °F 21.2 °F 86% 30.19 in 10.0 mi North 16.1 mph 19.6 mph N/A   Overcast
3:35 PM 24.8 °F 11.9 °F 21.2 °F 86% 30.20 in 10.0 mi North 16.1 mph - N/A   Overcast
3:55 PM 24.8 °F 12.9 °F 21.2 °F 86% 30.21 in 10.0 mi North 13.8 mph 17.3 mph N/A   Mostly Cloudy
4:15 PM 26.6 °F 16.2 °F 21.2 °F 80% 30.21 in 10.0 mi North 11.5 mph - N/A   Scattered Clouds
4:35 PM 26.6 °F 13.8 °F 23.0 °F 86% 30.23 in 10.0 mi North 17.3 mph - N/A   Clear
4:55 PM 26.6 °F 14.7 °F 23.0 °F 86% 30.24 in 10.0 mi North 15.0 mph - N/A   Clear
5:15 PM 23.0 °F 12.4 °F 21.2 °F 93% 30.25 in 10.0 mi North 10.4 mph - N/A   Scattered Clouds
5:35 PM 23.0 °F 13.9 °F 21.2 °F 93% 30.27 in 10.0 mi North 8.1 mph - N/A   Mostly Cloudy
5:55 PM 21.2 °F 12.6 °F 21.2 °F 100% 30.27 in 10.0 mi North 6.9 mph - N/A   Scattered Clouds
6:15 PM 21.2 °F 11.7 °F 21.2 °F 100% 30.29 in 10.0 mi North 8.1 mph - N/A   Scattered Clouds
6:35 PM 23.0 °F 13.1 °F 21.2 °F 93% 30.30 in 10.0 mi North 9.2 mph - N/A   Scattered Clouds
6:55 PM 23.0 °F 13.9 °F 21.2 °F 93% 30.31 in 10.0 mi North 8.1 mph - N/A   Mostly Cloudy
7:15 PM 23.0 °F 13.1 °F 21.2 °F 93% 30.31 in 10.0 mi North 9.2 mph - N/A   Mostly Cloudy
7:35 PM 23.0 °F 13.1 °F 21.2 °F 93% 30.32 in 10.0 mi North 9.2 mph - N/A   Scattered Clouds
7:55 PM 21.2 °F 12.6 °F 21.2 °F 100% 30.32 in 10.0 mi North 6.9 mph - N/A   Mostly Cloudy
8:15 PM 23.0 °F 15.8 °F 23.0 °F 100% 30.34 in 10.0 mi NNW 5.8 mph - N/A   Overcast
8:35 PM 23.0 °F 15.8 °F 21.2 °F 93% 30.34 in 10.0 mi NW 5.8 mph - N/A   Overcast
8:55 PM 21.2 °F 14.9 °F 21.2 °F 100% 30.33 in 10.0 mi WNW 4.6 mph - N/A   Scattered Clouds
9:15 PM 17.6 °F 8.2 °F 17.6 °F 100% 30.34 in 10.0 mi WNW 6.9 mph - N/A   Clear
9:35 PM 15.8 °F 4.2 °F 15.8 °F 100% 30.34 in 10.0 mi WNW 9.2 mph - N/A   Scattered Clouds
9:55 PM 17.6 °F 8.2 °F 17.6 °F 100% 30.32 in 10.0 mi West 6.9 mph - N/A   Clear
10:15 PM 17.6 °F 10.7 °F 17.6 °F 100% 30.33 in 10.0 mi West 4.6 mph - N/A   Scattered Clouds
10:35 PM 17.6 °F 8.2 °F 17.6 °F 100% 30.33 in 10.0 mi West 6.9 mph - N/A   Mostly Cloudy
10:55 PM 21.2 °F 13.6 °F 19.4 °F 93% 30.34 in 10.0 mi West 5.8 mph - N/A   Mostly Cloudy
11:15 PM 21.2 °F 16.4 °F 21.2 °F 100% 30.32 in 10.0 mi West 3.5 mph - N/A   Scattered Clouds
11:35 PM 21.2 °F 16.4 °F 21.2 °F 100% 30.33 in 10.0 mi West 3.5 mph - N/A   Scattered Clouds
11:55 PM 17.6 °F 10.7 °F 17.6 °F 100% 30.32 in 10.0 mi WSW 4.6 mph - N/A   Scattered Clouds